GW5406 Weather Reports


time (UTC)temp
C
wind
direction
speed
KPH
gust
KPH
rain 1hr
cm
rain 24hr
cm
rain mn
cm
humidity
%
barometer
mb
20260506140506 11 16 0.0 3.2 0.00 0.00 0.00 91 1020.9
20260506140016 11 38 0.0 3.2 0.00 0.00 0.00 91 1020.9
20260506135507 11 15 0.0 3.2 0.00 0.00 0.00 92 1020.8
20260506135011 11 15 0.0 3.2 0.00 0.00 0.00 92 1020.8
20260506134553 11 121 0.0 3.2 0.00 0.00 0.00 91 1020.8
20260506134007 11 121 0.0 3.2 0.00 0.00 0.00 91 1020.7
20260506133508 11 111 1.6 6.4 0.00 0.00 0.00 92 1020.7
20260506133023 11 141 4.8 9.7 0.00 0.00 0.00 92 1020.6
20260506132508 11 152 4.8 9.7 0.00 0.00 0.00 92 1020.5
20260506132008 11 127 3.2 6.4 0.00 0.00 0.00 93 1020.5
20260506131507 11 53 0.0 4.8 0.00 0.00 0.00 93 1020.5
20260506131003 11 94 3.2 4.8 0.00 0.00 0.00 93 1020.5
20260506130507 10 96 0.0 6.4 0.00 0.00 0.00 93 1020.4
20260506130012 10 136 1.6 9.7 0.00 0.00 0.00 94 1020.5
20260506125503 10 157 3.2 11.3 0.00 0.00 0.00 94 1020.4
20260506125006 10 138 4.8 11.3 0.00 0.00 0.00 94 1020.4
20260506124505 11 103 4.8 8.0 0.00 0.00 0.00 94 1020.3
20260506124003 11 150 1.6 4.8 0.00 0.00 0.00 94 1020.3
20260506123503 11 109 1.6 6.4 0.00 0.00 0.00 94 1020.3
20260506123003 11 165 1.6 6.4 0.00 0.00 0.00 94 1020.3
20260506122503 11 143 0.0 3.2 0.00 0.00 0.00 94 1020.3
20260506122006 11 131 0.0 3.2 0.00 0.00 0.00 94 1020.3
20260506121509 11 100 0.0 3.2 0.00 0.00 0.00 94 1020.2
20260506121003 10 99 1.6 6.4 0.00 0.00 0.00 94 1020.2
20260506120503 10 127 3.2 6.4 0.00 0.00 0.00 94 1020.1
20260506120011 10 128 0.0 4.8 0.00 0.00 0.00 94 1020.2
20260506115503 10 134 0.0 4.8 0.00 0.00 0.00 94 1020.1
20260506115004 10 23 1.6 3.2 0.00 0.00 0.00 94 1020.1
20260506114523 10 120 0.0 1.6 0.00 0.00 0.00 95 1020.0
20260506114007 10 65 0.0 3.2 0.00 0.00 0.00 95 1020.0
20260506113506 10 65 0.0 3.2 0.00 0.00 0.00 95 1020.1
20260506113006 10 58 0.0 1.6 0.00 0.00 0.00 95 1020.0
20260506112503 10 58 0.0 0.0 0.00 0.00 0.00 95 1020.0
20260506112004 10 58 0.0 0.0 0.00 0.00 0.00 95 1020.0
20260506111504 10 109 0.0 1.6 0.00 0.00 0.00 95 1020.0
20260506111004 10 115 0.0 1.6 0.00 0.00 0.00 95 1019.9
20260506110504 10 119 0.0 1.6 0.00 0.00 0.00 95 1019.9
20260506110014 10 86 0.0 0.0 0.00 0.00 0.00 95 1019.9
20260506105504 10 86 0.0 3.2 0.00 0.00 0.00 95 1019.9
20260506105003 10 117 0.0 3.2 0.00 0.00 0.00 95 1019.8
20260506104511 10 81 0.0 3.2 0.00 0.00 0.00 95 1019.7
20260506104006 10 61 0.0 3.2 0.00 0.00 0.00 95 1019.7
20260506103508 10 157 1.6 3.2 0.00 0.00 0.00 95 1019.6
20260506103023 10 132 1.6 3.2 0.00 0.00 0.00 95 1019.6
20260506102507 10 138 0.0 4.8 0.00 0.00 0.00 95 1019.5
20260506102003 10 129 1.6 4.8 0.00 0.00 0.00 95 1019.5
20260506101504 10 101 3.2 4.8 0.00 0.00 0.00 95 1019.5
20260506101003 10 130 1.6 3.2 0.00 0.00 0.00 95 1019.4
20260506100503 10 144 0.0 3.2 0.00 0.00 0.00 95 1019.3
20260506100007 10 148 0.0 3.2 0.00 0.00 0.00 95 1019.3
20260506095503 10 142 0.0 0.0 0.00 0.00 0.00 95 1019.4
20260506095004 10 142 0.0 0.0 0.00 0.00 0.00 95 1019.3
20260506094516 10 142 0.0 0.0 0.00 0.00 0.00 95 1019.3
20260506094004 10 142 0.0 0.0 0.00 0.00 0.00 95 1019.4
20260506093504 10 142 0.0 0.0 0.00 0.00 0.00 95 1019.3
20260506093016 10 142 0.0 0.0 0.00 0.00 0.00 95 1019.3
20260506092512 10 142 0.0 3.2 0.00 0.00 0.00 95 1019.3
20260506092007 10 142 0.0 3.2 0.00 0.00 0.00 95 1019.4
20260506091520 10 142 0.0 3.2 0.00 0.00 0.00 95 1019.4
20260506091007 10 142 0.0 3.2 0.00 0.00 0.00 95 1019.5
20260506090503 10 138 0.0 1.6 0.00 0.00 0.00 95 1019.5
20260506090005 10 159 0.0 0.0 0.00 0.00 0.00 95 1019.5
20260506085503 10 159 0.0 3.2 0.00 0.00 0.00 95 1019.4
20260506085003 10 159 0.0 3.2 0.00 0.00 0.00 95 1019.4
20260506084512 10 159 0.0 3.2 0.00 0.00 0.00 95 1019.5
20260506084003 10 159 0.0 3.2 0.00 0.00 0.00 95 1019.5
20260506083504 10 171 0.0 0.0 0.00 0.00 0.00 95 1019.5
20260506083015 10 252 0.0 0.0 0.00 0.00 0.00 95 1019.5
20260506082503 10 252 0.0 0.0 0.00 0.00 0.00 95 1019.5
20260506082007 10 252 0.0 0.0 0.00 0.00 0.00 95 1019.5
20260506081523 10 252 0.0 0.0 0.00 0.00 0.00 94 1019.5
20260506081009 10 252 0.0 0.0 0.00 0.00 0.00 94 1019.5
20260506080507 10 252 0.0 3.2 0.00 0.00 0.00 94 1019.5
20260506073506 10 317 0.0 0.0 0.00 0.00 0.00 94 1019.2
20260506073013 10 317 0.0 0.0 0.00 0.00 0.00 94 1019.2
20260506072503 10 317 0.0 0.0 0.00 0.00 0.00 94 1019.2
20260506072008 10 317 0.0 3.2 0.00 0.00 0.00 94 1019.1
20260506071517 10 317 0.0 3.2 0.00 0.00 0.00 94 1019.1
20260506071008 10 320 0.0 3.2 0.00 0.00 0.00 94 1018.9
20260506070507 10 321 0.0 3.2 0.00 0.00 0.00 94 1018.8
20260506062505 10 321 1.6 4.8 0.00 0.00 0.00 93 1018.6
20260506062007 10 318 0.0 4.8 0.00 0.00 0.00 93 1018.5
20260506061518 10 308 1.6 4.8 0.00 0.00 0.00 93 1018.5
20260506061009 10 319 1.6 4.8 0.00 0.00 0.00 93 1018.4
20260506060509 10 323 1.6 4.8 0.00 0.00 0.00 93 1018.5
20260506051009 10 323 3.2 4.8 0.00 0.00 0.00 92 1018.1
20260506050508 10 305 3.2 4.8 0.00 0.00 0.00 92 1018.0
20260506045011 10 352 1.6 4.8 0.00 0.00 0.00 92 1017.9
20260506044520 10 336 3.2 4.8 0.00 0.00 0.00 92 1017.9
20260506044013 10 323 3.2 4.8 0.00 0.00 0.00 92 1017.9
20260506043511 10 352 3.2 4.8 0.00 0.00 0.00 91 1017.8
20260506043021 10 336 3.2 4.8 0.00 0.00 0.00 91 1017.7
20260506042507 10 352 3.2 4.8 0.00 0.00 0.00 91 1017.6
20260506042012 10 344 3.2 8.0 0.00 0.00 0.00 91 1017.5
20260506041534 10 295 4.8 8.0 0.00 0.00 0.00 91 1017.5
20260506041003 11 290 4.8 8.0 0.00 0.00 0.00 91 1017.5
20260506040508 11 314 3.2 8.0 0.00 0.00 0.00 91 1017.3
20260506040021 11 320 3.2 8.0 0.00 0.00 0.00 91 1017.2
20260506035504 11 341 3.2 8.0 0.00 0.00 0.00 91 1017.1
20260506035008 11 323 1.6 11.3 0.00 0.00 0.00 91 1017.1
20260506034518 11 352 4.8 8.0 0.00 0.00 0.00 90 1017.0
20260506034010 11 313 3.2 6.4 0.00 0.00 0.00 90 1017.0
20260506033509 11 299 3.2 8.0 0.00 0.00 0.00 90 1016.8
20260506033027 11 327 3.2 8.0 0.00 0.00 0.00 90 1016.8
20260506032503 11 286 3.2 4.8 0.00 0.00 0.00 90 1016.9
20260506032004 11 324 0.0 8.0 0.00 0.00 0.00 90 1016.7
20260506031508 11 352 1.6 11.3 0.00 0.00 0.00 90 1016.5
20260506031003 11 305 4.8 12.9 0.00 0.00 0.00 90 1016.5
20260506030504 11 345 4.8 12.9 0.00 0.00 0.00 90 1016.3
20260506030013 11 298 4.8 12.9 0.00 0.00 0.00 90 1016.2
20260506025508 11 337 8.0 16.1 0.00 0.00 0.00 89 1016.2
20260506025006 11 337 11.3 16.1 0.00 0.00 0.00 89 1016.2
20260506024510 11 313 8.0 14.5 0.00 0.00 0.00 88 1016.1
20260506024003 11 298 9.7 14.5 0.00 0.00 0.00 88 1016.0
20260506023503 11 320 9.7 17.7 0.00 0.00 0.00 88 1016.0
20260506023003 11 326 9.7 17.7 0.00 0.00 0.00 87 1015.9
20260506022502 12 294 9.7 14.5 0.00 0.00 0.00 87 1015.9
20260506022003 12 346 6.4 14.5 0.00 0.00 0.00 86 1015.9
20260506021509 12 313 6.4 14.5 0.00 0.00 0.00 86 1015.9
20260506021004 12 300 6.4 14.5 0.00 0.03 0.00 85 1015.9
20260506020502 12 347 8.0 14.5 0.00 0.03 0.00 85 1015.8
20260506020007 12 328 6.4 14.5 0.00 0.03 0.00 85 1015.8
20260506015506 12 313 9.7 14.5 0.00 0.03 0.00 84 1015.7
20260506015004 12 310 6.4 12.9 0.00 0.03 0.00 84 1015.7
20260506014515 12 320 6.4 16.1 0.00 0.03 0.00 84 1015.7
20260506014004 13 334 8.0 16.1 0.00 0.03 0.00 83 1015.6
20260506013507 13 360 6.4 14.5 0.00 0.03 0.00 83 1015.6
20260506013004 13 321 6.4 16.1 0.00 0.03 0.00 82 1015.5
20260506012502 13 338 9.7 16.1 0.00 0.03 0.00 82 1015.5
20260506012002 13 299 8.0 12.9 0.00 0.03 0.00 81 1015.5
20260506011503 13 266 3.2 17.7 0.00 0.03 0.00 80 1015.5
20260506011003 13 338 6.4 17.7 0.00 0.03 0.00 81 1015.5
20260506010506 14 315 8.0 16.1 0.00 0.03 0.00 80 1015.4
20260506010007 14 309 6.4 12.9 0.00 0.03 0.00 79 1015.5
20260506005503 14 300 4.8 11.3 0.00 0.03 0.00 79 1015.5
20260506005003 14 307 3.2 14.5 0.00 0.03 0.00 80 1015.5
20260506004510 14 298 4.8 16.1 0.00 0.03 0.00 79 1015.4
20260506004006 14 352 6.4 16.1 0.00 0.03 0.00 79 1015.4
20260506003507 14 290 8.0 16.1 0.00 0.03 0.00 78 1015.5
20260506003019 15 321 6.4 16.1 0.00 0.03 0.00 78 1015.5
20260506002509 15 315 4.8 12.9 0.00 0.03 0.00 79 1015.5
20260506002002 15 9 3.2 12.9 0.00 0.03 0.00 78 1015.4
20260506001505 15 67 3.2 12.9 0.00 0.03 0.00 77 1015.4
20260506001004 15 333 6.4 11.3 0.00 0.03 0.00 76 1015.4
20260506000506 15 295 4.8 9.7 0.00 0.03 0.00 76 1015.4
20260506000004 15 335 3.2 14.5 0.00 0.03 0.00 77 1015.4
20260505235504 15 149 4.8 14.5 0.00 0.03 0.00 77 1015.3
20260505235003 15 248 3.2 11.3 0.00 0.03 0.00 76 1015.3
20260505234515 15 268 3.2 11.3 0.00 0.03 0.00 76 1015.3
20260505234005 15 15 4.8 12.9 0.00 0.03 0.00 77 1015.3
20260505233504 15 313 6.4 12.9 0.00 0.03 0.00 76 1015.3
20260505233016 15 360 3.2 12.9 0.00 0.03 0.00 76 1015.3
20260505232509 15 348 1.6 9.7 0.00 0.03 0.00 75 1015.4
20260505232009 15 352 4.8 17.7 0.00 0.03 0.00 76 1015.4
20260505231520 15 343 9.7 17.7 0.00 0.03 0.00 75 1015.5
20260505231007 15 279 1.6 11.3 0.00 0.03 0.00 75 1015.4
20260505230502 15 193 6.4 16.1 0.00 0.03 0.00 74 1015.4
20260505230009 15 286 6.4 16.1 0.00 0.03 0.00 76 1015.4
20260505225505 16 325 4.8 11.3 0.00 0.03 0.00 75 1015.5
20260505225003 15 55 3.2 11.3 0.00 0.03 0.00 77 1015.5
20260505224508 15 304 3.2 16.1 0.00 0.03 0.00 76 1015.5
20260505224004 15 288 8.0 16.1 0.00 0.03 0.00 76 1015.6
20260505223506 15 301 4.8 16.1 0.00 0.03 0.00 76 1015.5
20260505223016 15 308 3.2 11.3 0.00 0.03 0.00 78 1015.7
20260505222508 15 284 3.2 9.7 0.00 0.03 0.00 78 1015.8
20260505222005 15 193 3.2 8.0 0.00 0.05 0.00 79 1015.8
20260505221517 14 195 0.0 12.9 0.00 0.05 0.00 80 1015.9
20260505221007 14 232 4.8 12.9 0.00 0.05 0.00 80 1015.8
20260505220506 14 157 6.4 12.9 0.00 0.05 0.00 80 1015.8
20260505220022 14 166 8.0 12.9 0.00 0.05 0.00 80 1015.9
20260505215503 13 144 6.4 9.7 0.00 0.05 0.00 82 1015.9
20260505215006 13 172 6.4 11.3 0.00 0.05 0.00 82 1016.1
20260505214509 13 158 4.8 11.3 0.00 0.05 0.00 82 1016.1
20260505214007 13 161 4.8 11.3 0.00 0.05 0.00 81 1016.1
20260505213506 13 182 8.0 11.3 0.00 0.05 0.00 83 1016.1
20260505213007 13 155 4.8 9.7 0.00 0.05 0.00 83 1016.1
20260505212506 13 133 4.8 12.9 0.00 0.05 0.00 82 1016.2
20260505212011 13 119 4.8 12.9 0.00 0.05 0.00 82 1016.2
20260505211524 13 140 8.0 12.9 0.00 0.08 0.00 83 1016.1
20260505211007 13 146 8.0 11.3 0.00 0.08 0.00 82 1016.2
20260505210506 13 155 3.2 12.9 0.00 0.10 0.00 83 1016.2
20260505210023 13 146 8.0 12.9 0.00 0.13 0.00 82 1016.3
20260505205506 13 156 8.0 11.3 0.00 0.15 0.00 82 1016.2
20260505205011 13 144 3.2 11.3 0.00 0.20 0.00 82 1016.2
20260505204528 13 136 8.0 14.5 0.00 0.23 0.00 82 1016.1
20260505204004 13 138 6.4 14.5 0.00 0.28 0.00 81 1016.2
20260505203504 13 129 1.6 9.7 0.00 0.33 0.00 80 1016.1
20260505203009 13 190 1.6 11.3 0.00 0.43 0.00 80 1016.2
20260505202505 13 262 1.6 11.3 0.00 0.43 0.00 81 1016.2
20260505202007 13 217 0.0 9.7 0.00 0.43 0.00 81 1016.1
20260505201511 13 101 3.2 11.3 0.00 0.43 0.00 81 1016.1
20260505201007 13 127 8.0 12.9 0.00 0.43 0.00 80 1016.1
20260505200507 13 101 1.6 12.9 0.00 0.43 0.00 81 1016.1
20260505200022 13 109 9.7 12.9 0.00 0.43 0.00 79 1016.1
20260505195506 13 121 9.7 12.9 0.00 0.43 0.00 79 1016.1
20260505195010 14 178 6.4 9.7 0.00 0.43 0.00 78 1016.1
20260505194528 14 261 1.6 6.4 0.00 0.43 0.00 78 1016.1
20260505194007 14 286 1.6 11.3 0.00 0.43 0.00 78 1016.1
20260505193509 14 250 3.2 11.3 0.00 0.43 0.00 79 1016.1
20260505193009 14 311 1.6 4.8 0.00 0.43 0.00 78 1016.1
20260505192504 14 113 1.6 8.0 0.00 0.43 0.00 76 1016.1
20260505192005 14 90 3.2 9.7 0.00 0.43 0.00 76 1016.0
20260505191512 14 163 4.8 9.7 0.00 0.43 0.00 78 1016.0
20260505191006 14 144 6.4 9.7 0.00 0.43 0.00 77 1016.1
20260505190505 13 165 0.0 9.7 0.00 0.43 0.00 76 1016.1
20260505190014 13 83 1.6 11.3 0.00 0.43 0.00 77 1016.0
20260505185508 13 76 1.6 11.3 0.00 0.43 0.00 78 1016.0
20260505185009 13 130 4.8 12.9 0.00 0.43 0.00 76 1016.0
20260505184525 13 77 4.8 14.5 0.00 0.43 0.00 78 1016.0
20260505184008 13 73 8.0 14.5 0.00 0.43 0.00 77 1016.1
20260505183508 13 65 6.4 12.9 0.00 0.43 0.00 79 1016.1
20260505183026 13 86 8.0 12.9 0.00 0.43 0.00 78 1016.2
20260505182507 13 86 3.2 14.5 0.00 0.43 0.00 78 1016.1
20260505182012 13 60 6.4 14.5 0.00 0.43 0.00 79 1016.0
20260505181509 13 82 4.8 14.5 0.00 0.43 0.00 79 1015.9
20260505181005 13 33 3.2 14.5 0.00 0.43 0.00 82 1015.9
20260505180507 12 86 6.4 14.5 0.00 0.43 0.00 81 1015.9
20260505180003 12 21 8.0 14.5 0.00 0.43 0.00 80 1015.9
20260505175503 12 62 3.2 11.3 0.00 0.43 0.00 82 1015.8
20260505175005 12 109 6.4 14.5 0.00 0.43 0.00 81 1015.8
20260505174503 12 69 8.0 12.9 0.00 0.43 0.00 84 1015.7
20260505174003 11 160 1.6 8.0 0.00 0.43 0.00 85 1015.6
20260505173507 11 167 1.6 6.4 0.00 0.43 0.00 86 1015.6
20260505173006 11 250 1.6 6.4 0.00 0.43 0.00 87 1015.5
20260505172503 10 158 1.6 6.4 0.00 0.43 0.00 86 1015.5
20260505172003 10 122 1.6 4.8 0.00 0.43 0.00 86 1015.5
20260505171506 10 84 0.0 4.8 0.00 0.43 0.00 87 1015.5
20260505171004 10 114 3.2 4.8 0.00 0.43 0.00 87 1015.5
20260505170504 10 184 1.6 3.2 0.00 0.43 0.00 88 1015.5
20260505170013 10 223 0.0 4.8 0.00 0.43 0.00 88 1015.5
20260505165505 10 225 1.6 4.8 0.00 0.43 0.00 89 1015.5
20260505165002 10 236 1.6 4.8 0.00 0.43 0.00 90 1015.5
20260505164503 9 211 0.0 4.8 0.00 0.43 0.00 92 1015.5
20260505164003 9 211 1.6 3.2 0.00 0.43 0.00 92 1015.5
20260505163504 8 236 0.0 3.2 0.00 0.43 0.00 92 1015.4
20260505163004 8 243 0.0 3.2 0.00 0.43 0.00 93 1015.4
20260505162503 8 294 0.0 4.8 0.00 0.43 0.00 93 1015.4
20260505162002 8 290 1.6 4.8 0.00 0.43 0.00 92 1015.4
20260505161506 8 251 1.6 4.8 0.00 0.43 0.00 93 1015.4
20260505161003 8 244 0.0 3.2 0.00 0.43 0.00 93 1015.3
20260505160503 7 263 0.0 3.2 0.00 0.43 0.00 93 1015.4
20260505153004 7 275 0.0 3.2 0.00 0.43 0.00 93 1015.3
20260505152503 7 313 0.0 4.8 0.00 0.43 0.00 93 1015.2
20260505152005 7 316 1.6 4.8 0.00 0.43 0.00 93 1015.1
20260505151504 7 265 0.0 3.2 0.00 0.43 0.00 93 1015.1
20260505151004 7 253 0.0 3.2 0.00 0.43 0.00 93 1015.1
20260505150504 7 271 0.0 3.2 0.00 0.43 0.00 93 1015.1